Location: Allaines
(49.9632°N, 2.9458°E)
Time: 02:16:12
(UTC+00:00)

Cosmos 1954 Rocket - Pass Details

Date: 09 April 2020
Orbit: 752 x 781 km, 74.1° (Epoch: 03 June)

Event Time Altitude Azimuth Distance (km) Brightness Sun altitude
Rises 19:28:27 0° 179° (S) 3,226 7.0 -9.2°
Reaches altitude 10° 19:30:57 10° 172° (S) 2,299 6.2 -9.6°
Maximum altitude 19:35:46 40° 104° (ESE) 1,122 4.4 -10.3°
Drops below altitude 10° 19:40:36 10° 36° (NE) 2,298 6.4 -11.0°
Sets 19:43:05 0° 29° (NNE) 3,225 7.2 -11.3°
